Other Public Products
Issued by NWS Grand Forks, ND

Home | Current Version | Previous Version | Graphics & Text | Print | Product List | Glossary On
Versions: 1 2 3 4 5 6 7 8 9 10 11 12 13 14 15 16 17 18 19 20 21 22 23 24 25 26 27 28 29 30 31 32 33 34 35 36 37 38 39 40 41 42 43 44 45 46 47 48 49 50
378
FPUS83 KFGF 132010
OPUFGF
PRAIRIE TO PINES WEATHER ROUNDUP
NATIONAL WEATHER SERVICE EASTERN NORTH DAKOTA/GRAND FORKS ND
200 PM CST SAT FEB 13 2016

 **SATELLITE DATA USED TO AUGMENT SKY COVER AT AUTOMATED STATIONS**
 *****  WEATHER ACROSS EASTERN NORTH DAKOTA  *****

CITY           SKY/WX    TMP DP  RH WIND       PRES   REMARKS
GRAND FORKS    MOSUNNY    9  -2  61 S15       30.35F WCI  -8
GRAND FORKS AF CLOUDY     7  -4  61 S15       30.32F WCI -10
GRAND CITY NWS NOT AVBL
BUXTON         NOT AVBL
DEVILS LAKE    CLOUDY     5  -3  69 SE18G28   30.17F WCI -15
FARGO          CLOUDY    11   0  61 SE14      30.35F WCI  -5
WAHPETON ARPT  CLOUDY    10   1  67 S20       30.37F WCI  -8
$$

 *****  WEATHER ACROSS CENTRAL AND WESTERN NORTH DAKOTA  *****

CITY           SKY/WX    TMP DP  RH WIND       PRES   REMARKS
JAMESTOWN      CLOUDY     9   0  67 SE20      30.16F WCI -10
BISMARCK       FLURRIES  16   8  71 SE22G28   30.04F WCI  -2
MINOT          FLURRIES  18   6  59 SE17G25   29.98F WCI   3
MINOT AFB      CLOUDY    17   8  70 SE23      29.97F WCI  -1
GARRISON         N/A     13   8  81 S21       29.96F WCI  -5
WILLISTON      CLOUDY    22  15  75 SE10      29.85F WCI  11
DICKINSON      CLOUDY    17  14  88 S13G22    29.87R FOG     WCI   4
HETTINGER      CLOUDY    20  18  92 SE14      29.87F FOG     WCI   7
$$

 *****  OTHER OBSERVATIONS NORTHEAST NORTH DAKOTA  *****

CITY           SKY/WX    TMP DP  RH WIND       PRES   REMARKS
WALHALLA       FAIR       7  -2  66 SE18      30.29F WCI -12
LANGDON        CLOUDY     5  -4  66 SE23G31   30.18F HAZE    WCI -17
CAVALIER       FAIR       5  -2  72 S15G22    30.32F WCI -13
GRAFTON        FAIR       5  -4  66 SE17      30.35F WCI -14
CANDO          NOT AVBL
FORT TOTTEN      N/A      4  -5  65 SE14      29.95S WCI -14
ROLLA          CLOUDY     1  -4  78 S21G28    30.09F WCI -20
RUGBY          CLOUDY     7   0  72 SE20G28   30.08F WCI -13
 ***** THE ABOVE OBSERVATIONS ARE NON NWS ARE NOT QUALITY
        CONTROLLED AND MAY MIS-REPORT RAIN FOR SNOW...
$$

 *****  OTHER OBSERVATIONS SOUTHEAST NORTH DAKOTA *****

CITY           SKY/WX    TMP DP  RH WIND       PRES   REMARKS
COOPERSTOWN    NOT AVBL
VALLEY CITY    FLURRIES   5   0  78 SE18G26   30.24F WCI -15
OAKES          CLOUDY    12   0  57 SE20G25   30.22F WCI  -6
GWINNER        FAIR       9   1  72 SE20      30.27F WCI -11
SHEYENNE NWR     N/A      8  -3  60 SE14      29.95S WCI  -8
BUFFALO        NOT AVBL
WYNDMERE       NOT AVBL
 ***** THE ABOVE OBSERVATIONS ARE NON NWS ARE NOT QUALITY
       CONTROLLED AND MAY MIS-REPORT RAIN FOR SNOW...
$$

  *****  WEATHER ACROSS NORTHERN MINNESOTA  *****

CITY           SKY/WX    TMP DP  RH WIND       PRES   REMARKS
FLAG ISLAND    CLOUDY    -6 -13  71 S3        30.42F
WARROAD        CLOUDY     0  -9  65 NE5       30.40F WCI -10
ROSEAU         CLOUDY     3  -8  60 CALM      30.39F
HALLOCK        CLOUDY     7  -6  56 SE20      30.36F WCI -13
THF RVR FALLS  SUNNY      5 -15  39 SE12      30.37F WCI -11
HALSTAD        NOT AVBL
FOSSTON        SUNNY     19   0  42 CALM      30.35F
BAUDETTE       CLOUDY     4 -14  43 S8        30.39F WCI  -9
WASKISH        SUNNY      7  -8  51 CALM      30.40F
CROOKSTON      SUNNY      7  -6  56 S14       30.38F WCI -10
$$
  *****  WEATHER ACROSS CENTRAL AND WEST MINNESOTA  *****

CITY           SKY/WX    TMP DP  RH WIND       PRES   REMARKS
BEMIDJI        SUNNY      6 -11  47 SE8       30.38F WCI  -7
PARK RAPIDS    SUNNY      9 -11  40 SE10      30.37F WCI  -5
WADENA         SUNNY      7  -8  51 SE10      30.38F WCI  -8
DETROIT LAKES  SUNNY     10  -4  52 SE14      30.35F WCI  -5
MOORHEAD       CLOUDY    10  -2  56 S18       30.36F WCI  -8
FERGUS FALLS   MOSUNNY   10  -2  56 S20       30.41F WCI  -8
ELBOW LAKE     FAIR       9  -2  61 SE17      30.37F WCI  -9
MORRIS MN      CLOUDY    10   1  67 MISG      30.37F
STAPLES        SUNNY      7 -11  43 S9        30.40F WCI  -7
WHEATON        CLOUDY     9   1  72 SE18      30.39F WCI -10
$$
  *****  WEATHER ELSEWHERE ACROSS MINNESOTA  *****

CITY           SKY/WX    TMP DP  RH WIND       PRES   REMARKS
DULUTH         SUNNY      6 -13  41 W8        30.42F WCI  -7
INTRNTL FALLS  SUNNY      4 -14  43 CALM      30.43F
ELY            SUNNY      5 -15  39 CALM      30.40F
CLOQUET        SUNNY      7 -18  30 CALM      30.43F
BRAINERD       SUNNY      5 -11  47 S9        30.44F WCI  -9
HIBBING        SUNNY      6 -13  41 NE5       30.42F WCI  -3
ALEXANDRIA     SUNNY      8  -6  52 SE13      30.38F WCI  -8
SAINT CLOUD    SUNNY      7  -8  50 SE9       30.47F WCI  -7
MINNEAPOLIS    SUNNY      9 -10  42 SE8       30.52F WCI  -3
$$

  *****  WEATHER ACROSS SOUTH DAKOTA  *****

CITY           SKY/WX    TMP DP  RH WIND       PRES   REMARKS
SIOUX FALLS    CLOUDY     8  -2  63 SE15      30.33F WCI  -9
BROOKINGS      CLOUDY     7  -2  66 SE20G26   30.30F WCI -13
WATERTOWN      CLOUDY     8  -3  61 S18G25    30.26F WCI -11
HURON          CLOUDY    12   3  67 SE28G37   30.22F WCI  -9
SISSETON         N/A      6   0  76 S20       30.33F WCI -14
ABERDEEN       CLOUDY    14   2  58 SE24G30   30.22F WCI  -5
MITCHELL       CLOUDY    13   5  70 SE22G31   30.27F WCI  -6
PIERRE         CLOUDY    27  18  69 SE23G33   30.01F WCI  12
MOBRIDGE       CLOUDY    18  13  80 SE17      30.03F WCI   3
RAPID CITY     CLOUDY    49  32  52 S15       29.80F
$$

  *****  SOME WEATHER IN NEARBY STATES *****

CITY           SKY/WX    TMP DP  RH WIND       PRES   REMARKS
GLASGOW MT     CLOUDY    28  25  88 SW3       29.79S
GREAT FALLS MT CLOUDY    47  22  37 W25G32    29.94S
CHEYENNE WY    CLOUDY    58  13  17 W23G33    29.98F
SCOTTSBLUFF NE CLOUDY    47  32  56 SE9       29.91F
OMAHA NE       CLOUDY    17   5  59 SE14      30.44F WCI   3
DES MOINES IA  CLOUDY    12  -4  48 SE8       30.53F WCI   0
DAVENPORT IA   SUNNY     17  -7  34 NE6       30.56F WCI   9
CHICAGO IL     MOSUNNY   15  -6  39 W7        30.53F WCI   5
EAU CLAIRE WI  SUNNY      5 -11  47 SW7       30.54F WCI  -7
LA CROSSE WI   SUNNY     10 -11  38 NW5       30.58F WCI   2
$$

  *****  SOME NATIONAL WEATHER *****

CITY           SKY/WX    TMP DP  RH WIND       PRES   REMARKS
LA GUARDIA NY  MOSUNNY   19  -2  39 NW29G41   30.10R WCI   0
RALEIGH NC     MOSUNNY   33  -2  22 NW8G17    30.29S
ATLANTA GA     SUNNY     41   5  22 NW18G25   30.33F
NEW ORLEANS LA MOSUNNY   58  30  34 E6        30.37F
OKLAHOMA CITY  MOSUNNY   53  30  41 SE17      30.25F
ALBUQUERQUE NM SUNNY     62  14  15 SW7       30.20F
SALT LAKE CITY CLOUDY    31  28  89 NW8       30.34S FOG     WCI  23
LOS ANGELES CA MOSUNNY   61  53  75 W7        30.06F HAZE
BOISE ID       SUNNY     48  33  56 NW12      30.32F
SEATTLE WA     CLOUDY    50  41  71 S8        30.22F
$$

*** WEATHER ACROSS MANITOBA...SASKATCHEWAN AND ONTARIO ***
                ***ONTARIO***

CITY           SKY/WX    TMP DP  RH WIND       PRES   REMARKS
GERALDTON      MOSUNNY   -4 -17  54 NW7       30.35F WCI -18
THUNDER BAY    MOSUNNY    5 -11  47 W10       30.46F WCI -10
SIOUX LOOKOUT  PTSUNNY    0 -15  50 CALM      30.40F
TORONTO        MOSUNNY    1 -15  46 NW15G23   30.32S WCI -18
BIG TROUT LK   SUNNY     -4 -15  59 W8        30.36F WCI -19
PICKLE LAKE    CRYSTALS   0 -15  50 W6        30.34F WCI -12
DRYDEN         SUNNY      1 -13  51 W5        30.39F WCI  -8
KENORA         PTSUNNY    0 -15  50 SW6       30.39F WCI -12
$$
                *** MANITOBA***

CITY           SKY/WX    TMP DP  RH WIND       PRES   REMARKS
BRANDON        PTSUNNY    7  -4  61 SE14G22   30.11F WCI -10
DAUPHIN        CLOUDY     5  -4  66 SE13      30.11F WCI -12
ISLAND LAKE    PTSUNNY    1 -11  55 S6        30.33F WCI -10
PILOT MOUND      N/A      3  -2  78 SE23        N/A  WCI -19
THE PAS        PTSUNNY    1  -9  60 SE22G28   30.03F WCI -21
THOMPSON       MOSUNNY    3  -9  55 S8G22     30.16F WCI -10
WINNIPEG       PTSUNNY    1 -11  55 SE16      30.35F WCI -18
LYNN LAKE      SUNNY      7  -6  56 S9G18     29.91F WCI  -7
CHURCHILL      CLOUDY    -4 -13  65 S10       30.18F WCI -21
GILLAM         CLOUDY     0 -15  50 S9        30.25F WCI -16
$$
                ***SASKATCHEWAN***

CITY           SKY/WX    TMP DP  RH WIND       PRES   REMARKS
ESTEVAN        LGT SNOW  18  10  73 S21G26    29.90F DRFTSNOWWCI   1
KINDERSLEY     LGT SNOW  21  19  93 N12       29.76S WCI   9
LLOYDMINSTER   CLOUDY    21  21 100 SW8       29.73F WCI  12
PRINCE ALBERT  FLURRIES   7   3  85 E8        29.85F WCI  -6
REGINA         CLOUDY    19  14  79 SE21G32   29.78F WCI   3
YORKTON        FLURRIES   7   1  78 SE18G24   29.92F WCC1F1C2F2C3F3C4F4C5F5C6F6C7F7C8F8C9F9CaFaCbFbCcFcCdFdCe!



USA.gov is the U.S. government's official web portal to all federal, state and local government web resources and services.